Location: Canet
(43.3261°N, 5.3723°E)
Time: 18:37:15
(UTC+00:00)

NOSS 3-1 (A) - Pass Details

Date: 24 January 2021
Orbit: 735 x 1477 km, 63.4° (Epoch: 02 March)

Event Time Altitude Azimuth Distance (km) Brightness Sun altitude
Rises 18:47:51 0° 323° (NW) 3,952 7.1 -23.1°
Reaches altitude 10° 18:50:22 10° 325° (NW) 3,089 6.5 -23.6°
Maximum altitude 18:57:59 80° 53° (NE) 1,340 4.0 -25.0°
Enters shadow 19:02:49 30° 137° (SE) 2,276 5.0 -25.9°
